H1 CPF 1 NER 2015 9 5 9 7481 glonass100 H2 0505001 9100 28915 2015 9 5 0 0 0 2015 9 8 23 45 0 900 1 1 0 0 0 H9 10 0 57270 0.00000 0 5432061.574 -24905929.913 1675419.903 10 0 57270 900.00000 0 5254599.507 -24953178.732 -1546395.915 10 0 57270 1800.00000 0 5018272.550 -24597406.115 -4738308.993 10 0 57270 2700.00000 0 4779529.709 -23839954.418 -7838593.876 10 0 57270 3600.00000 0 4593794.109 -22695532.515 -10787288.325 10 0 57270 4500.00000 0 4512906.331 -21191695.665 -13527339.517 10 0 57270 5400.00000 0 4582723.174 -19367809.830 -16005695.867 10 0 57270 6300.00000 0 4840972.359 -17273542.246 -18174324.483 10 0 57270 7200.00000 0 5315453.288 -14966939.668 -19991135.398 10 0 57270 8100.00000 0 6022659.820 -12512172.444 -21420795.484 10 0 57270 9000.00000 0 6966883.975 -9977036.308 -22435416.732 10 0 57270 9900.00000 0 8139839.743 -7430313.941 -23015105.592 10 0 57270 10800.00000 0 9520825.015 -4939104.253 -23148362.413 10 0 57270 11700.00000 0 11077417.503 -2566229.028 -22832322.476 10 0 57270 12600.00000 0 12766678.298 -367823.949 -22072832.693 10 0 57270 13500.00000 0 14536815.550 1608786.221 -20884360.949 10 0 57270 14400.00000 0 16329241.177 3326839.712 -19289737.988 10 0 57270 15300.00000 0 18080936.439 4761443.427 -17319734.943 10 0 57270 16200.00000 0 19727028.582 5900376.953 -15012482.841 10 0 57270 17100.00000 0 21203470.993 6744360.345 -12412743.706 10 0 57270 18000.00000 0 22449713.913 7306773.665 -9571046.293 10 0 57270 18900.00000 0 23411252.366 7612839.594 -6542702.612 10 0 57270 19800.00000 0 24041942.341 7698303.586 -3386724.330 10 0 57270 20700.00000 0 24305985.565 7607667.797 -164660.924 10 0 57270 21600.00000 0 24179497.001 7392054.668 3060616.580 10 0 57270 22500.00000 0 23651586.978 7106792.364 6226160.841 10 0 57270 23400.00000 0 22724910.714 6808826.522 9270196.003 10 0 57270 24300.00000 0 21415661.105 6554070.479 12133341.625 10 0 57270 25200.00000 0 19753004.791 6394808.741 14759786.894 10 0 57270 26100.00000 0 17777985.694 6377265.971 17098390.435 10 0 57270 27000.00000 0 15541943.103 6539446.208 19103683.159 10 0 57270 27900.00000 0 13104512.061 6909335.021 20736754.019 10 0 57270 28800.00000 0 10531291.440 7503541.093 21966001.397 10 0 57270 29700.00000 0 7891278.660 8326434.536 22767736.163 10 0 57270 30600.00000 0 5254179.180 9369817.645 23126625.848 10 0 57270 31500.00000 0 2687703.560 10613140.934 23035972.740 10 0 57270 32400.00000 0 254964.421 12024254.157 22497822.291 10 0 57270 33300.00000 0 -1987919.369 13560659.599 21522901.462 10 0 57270 34200.00000 0 -3993913.185 15171213.981 20130389.898 10 0 57270 35100.00000 0 -5726767.225 16798206.919 18347529.824 10 0 57270 36000.00000 0 -7162259.174 18379728.613 16209083.351 10 0 57270 36900.00000 0 -8288930.114 19852227.665 13756648.532 10 0 57270 37800.00000 0 -9108286.083 21153152.560 11037847.860 10 0 57270 38700.00000 0 -9634459.704 22223567.138 8105404.959 10 0 57270 39600.00000 0 -9893348.415 23010631.681 5016127.189 10 0 57270 40500.00000 0 -9921267.361 23469847.061 1829813.352 10 0 57270 41400.00000 0 -9763174.729 23566969.202 -1391893.125 10 0 57270 42300.00000 0 -9470544.697 23279514.778 -4586684.111 10 0 57270 43200.00000 0 -9098977.471 22597795.862 -7692778.044 10 0 57270 44100.00000 0 -8705646.571 21525440.549 -10650100.626 10 0 57270 45000.00000 0 -8346689.989 20079377.614 -13401433.155 10 0 57270 45900.00000 0 -8074654.175 18289285.112 -15893507.484 10 0 57270 46800.00000 0 -7936097.568 16196524.708 -18078027.516 10 0 57270 47700.00000 0 -7969453.913 13852604.510 -19912598.344 10 0 57270 48600.00000 0 -8203245.046 11317232.428 -21361545.835 10 0 57270 49500.00000 0 -8654718.674 8656038.824 -22396611.251 10 0 57270 50400.00000 0 -9328969.338 5938061.005 -22997507.487 10 0 57270 51300.00000 0 -10218581.087 3233091.997 -23152325.877 10 0 57270 52200.00000 0 -11303808.985 609001.956 -22857784.897 10 0 57270 53100.00000 0 -12553294.329 -1870857.698 -22119314.771 10 0 57270 54000.00000 0 -13925286.207 -4150060.369 -20950974.781 10 0 57270 54900.00000 0 -15369320.741 -6181220.732 -19375203.092 10 0 57270 55800.00000 0 -16828289.683 -7927733.044 -17422401.994 10 0 57270 56700.00000 0 -18240813.159 -9365058.187 -15130364.794 10 0 57270 57600.00000 0 -19543817.708 -10481504.785 -12543553.776 10 0 57270 58500.00000 0 -20675211.197 -11278470.731 -9712242.135 10 0 57270 59400.00000 0 -21576541.206 -11770134.335 -6691535.846 10 0 57270 60300.00000 0 -22195523.377 -11982607.788 -3540294.465 10 0 57270 61200.00000 0 -22488331.004 -11952588.813 -319972.547 10 0 57270 62100.00000 0 -22421546.997 -11725568.318 2906594.517 10 0 57270 63000.00000 0 -21973693.501 -11353671.273 6076434.913 10 0 57270 63900.00000 0 -21136272.609 -10893224.147 9127688.649 10 0 57270 64800.00000 0 -19914272.748 -10402154.259 12000833.200 10 0 57270 65700.00000 0 -18326118.513 -9937333.622 14639860.670 10 0 57270 66600.00000 0 -16403065.930 -9551982.111 16993381.683 10 0 57270 67500.00000 0 -14188069.032 -9293241.815 19015633.377 10 0 57270 68400.00000 0 -11734166.297 -9200026.628 20667371.187 10 0 57270 69300.00000 0 -9102455.890 -9301238.672 21916627.046 10 0 57270 70200.00000 0 -6359745.711 -9614426.932 22739319.866 10 0 57270 71100.00000 0 -3575977.456 -10144944.078 23119707.561 10 0 57270 72000.00000 0 -821532.876 -10885635.894 23050673.280 10 0 57270 72900.00000 0 1835465.546 -11817074.971 22533842.042 10 0 57270 73800.00000 0 4331747.812 -12908327.321 21579527.260 10 0 57270 74700.00000 0 6611276.918 -14118218.249 20206509.881 10 0 57270 75600.00000 0 8627319.651 -15397043.138 18441655.878 10 0 57270 76500.00000 0 10344124.081 -16688650.611 16319380.671 10 0 57270 77400.00000 0 11738136.614 -17932810.286 13880971.679 10 0 57270 78300.00000 0 12798710.960 -19067765.975 11173782.591 10 0 57270 79200.00000 0 13528282.286 -20032867.785 8250315.017 10 0 57270 80100.00000 0 13942001.855 -20771173.619 5167205.175 10 0 57270 81000.00000 0 14066849.634 -21231912.034 1984134.703 10 0 57270 81900.00000 0 13940263.654 -21372704.340 -1237314.040 10 0 57270 82800.00000 0 13608344.556 -21161453.750 -4434836.847 10 0 57270 83700.00000 0 13123711.103 -20577823.219 -7546598.923 10 0 57270 84600.00000 0 12543096.584 -19614240.378 -10512416.652 10 0 57270 85500.00000 0 11924786.506 -18276387.442 -13274908.018 10 0 57271 0.00000 0 11326004.417 -16583155.000 -15780590.611 10 0 57271 900.00000 0 10800355.034 -14566059.980 -17980907.323 10 0 57271 1800.00000 0 10395430.492 -12268151.528 -19833160.074 10 0 57271 2700.00000 0 10150681.190 -9742446.661 -21301335.195 10 0 57271 3600.00000 0 10095638.869 -7049959.855 -22356804.328 10 0 57271 4500.00000 0 10248568.127 -4257405.304 -22978887.539 10 0 57271 5400.00000 0 10615603.410 -1434665.198 -23155267.471 10 0 57271 6300.00000 0 11190409.397 1347873.067 -22882245.740 10 0 57271 7200.00000 0 11954380.978 4022001.758 -22164835.463 10 0 57271 8100.00000 0 12877376.709 6524289.424 -21016686.579 10 0 57271 9000.00000 0 13918957.306 8798481.933 -19459843.601 10 0 57271 9900.00000 0 15030079.260 10797607.893 -17524338.615 10 0 57271 10800.00000 0 16155174.137 12485700.269 -15247625.530 10 0 57271 11700.00000 0 17234527.174 13839061.442 -12673864.896 10 0 57271 12600.00000 0 18206855.328 14847017.758 -9853072.023 10 0 57271 13500.00000 0 19011975.627 15512131.019 -6840144.222 10 0 57271 14400.00000 0 19593450.001 15849857.423 -3693786.019 10 0 57271 15300.00000 0 19901093.051 15887668.102 -475353.928 10 0 57271 16200.00000 0 19893234.516 15663668.819 2752355.533 10 0 57271 17100.00000 0 19538638.418 15224778.170 5926349.307 10 0 57271 18000.00000 0 18817995.467 14624542.946 8984686.393 10 0 57271 18900.00000 0 17724923.781 13920685.192 11867705.116 10 0 57271 19800.00000 0 16266434.259 13172487.107 14519203.159 10 0 57271 20700.00000 0 14462840.310 12438126.776 16887545.496 10 0 57271 21600.00000 0 12347115.651 11772079.529 18926677.488 10 0 57271 22500.00000 0 9963727.645 11222696.373 20597022.695 10 0 57271 23400.00000 0 7366996.089 10830062.772 21866247.870 10 0 57271 24300.00000 0 4619047.245 10624228.319 22709880.844 10 0 57271 25200.00000 0 1787449.647 10623881.504 23111770.377 10 0 57271 26100.00000 0 -1057368.826 10835524.235 23064380.497 10 0 57271 27000.00000 0 -3844814.726 11253179.320 22568915.342 10 0 57271 27900.00000 0 -6506821.862 11858641.354 21635273.843 10 0 57271 28800.00000 0 -8980432.037 12622258.613 20281836.826 10 0 57271 29700.00000 0 -11210158.036 13504211.437 18535092.142 10 0 57271 30600.00000 0 -13150032.734 14456232.036 16429106.247 10 0 57271 31500.00000 0 -14765261.545 15423692.622 14004853.336 10 0 57271 32400.00000 0 -16033412.222 16347973.778 11309415.491 10 0 57271 33300.00000 0 -16945095.210 17169013.701 8395069.393 10 0 57271 34200.00000 0 -17504108.734 17827931.779 5318277.172 10 0 57271 35100.00000 0 -17727044.885 18269617.106 2138600.400 10 0 57271 36000.00000 0 -17642374.978 18445174.230 -1082442.456 10 0 57271 36900.00000 0 -17289053.720 18314124.373 -4282553.799 10 0 57271 37800.00000 0 -16714701.338 17846270.549 -7399848.156 10 0 57271 38700.00000 0 -15973440.038 17023148.797 -10374034.962 10 0 57271 39600.00000 0 -15123475.135 15839004.727 -13147571.052 10 0 57271 40500.00000 0 -14224521.629 14301254.015 -15666761.762 10 0 57271 41400.00000 0 -13335183.268 12430406.432 -17882790.416 10 0 57271 42300.00000 0 -12510393.050 10259455.053 -19752657.171 10 0 57271 43200.00000 0 -11799021.727 7832753.947 -21240009.864 10 0 57271 44100.00000 0 -11241754.014 5204428.628 -22315851.249 10 0 57271 45000.00000 0 -10869321.497 2436382.808 -22959109.006 10 0 57271 45900.00000 0 -10701166.707 -404018.401 -23157057.249 10 0 57271 46800.00000 0 -10744595.326 -3246495.050 -22905580.621 10 0 57271 47700.00000 0 -10994453.516 -6020524.961 -22209274.728 10 0 57271 48600.00000 0 -11433345.675 -8658032.932 -21081379.457 10 0 57271 49500.00000 0 -12032385.498 -11095985.795 -19543544.671 10 0 57271 50400.00000 0 -12752450.707 -13278785.513 -17625430.948 10 0 57271 51300.00000 0 -13545890.389 -15160360.427 -15364151.228 10 0 57271 52200.00000 0 -14358614.286 -16705866.601 -12803562.522 10 0 57271 53100.00000 0 -15132476.523 -17892927.001 -9993420.256 10 0 57271 54000.00000 0 -15807853.011 -18712355.518 -6988410.928 10 0 57271 54900.00000 0 -16326302.720 -19168334.473 -3847081.768 10 0 57271 55800.00000 0 -16633198.672 -19278037.482 -630688.886 10 0 57271 56700.00000 0 -16680215.222 -19070713.602 2598012.527 10 0 57271 57600.00000 0 -16427563.953 -18586271.948 5776010.715 10 0 57271 58500.00000 0 -15845881.119 -17873427.788 8841286.279 10 0 57271 59400.00000 0 -14917684.597 -16987490.279 11734041.032 10 0 57271 60300.00000 0 -13638336.943 -15987887.484 14397880.839 10 0 57271 61200.00000 0 -12016472.770 -14935535.605 16780927.532 10 0 57271 62100.00000 0 -10073871.835 -13890165.769 18836837.001 10 0 57271 63000.00000 0 -7844783.207 -12907722.995 20525702.971 10 0 57271 63900.00000 0 -5374729.513 -12037948.356 21814828.711 10 0 57271 64800.00000 0 -2718842.158 -11322246.688 22679352.281 10 0 57271 65700.00000 0 60201.867 -10791929.376 23102714.196 10 0 57271 66600.00000 0 2894554.604 -10466905.145 23076959.871 10 0 57271 67500.00000 0 5713783.683 -10354872.291 22602872.691 10 0 57271 68400.00000 0 8447563.154 -10451044.271 21689936.873 10 0 57271 69300.00000 0 11028357.131 -10738417.973 20356132.562 10 0 57271 70200.00000 0 13393985.857 -11188571.233 18627568.605 10 0 57271 71100.00000 0 15489969.228 -11762954.214 16537961.294 10 0 57271 72000.00000 0 17271552.400 -12414618.872 14127970.071 10 0 57271 72900.00000 0 18705331.653 -13090312.881 11444403.531 10 0 57271 73800.00000 0 19770415.422 -13732849.555 8539311.194 10 0 57271 74700.00000 0 20459074.498 -14283654.224 5468978.521 10 0 57271 75600.00000 0 20776856.626 -14685380.443 2292844.154 10 0 57271 76500.00000 0 20742162.593 -14884486.827 -927640.412 10 0 57271 77400.00000 0 20385302.885 -14833667.035 -4130187.398 10 0 57271 78300.00000 0 19747075.318 -14494031.587 -7252863.862 10 0 57271 79200.00000 0 18876923.430 -13836950.456 -10235275.406 10 0 57271 80100.00000 0 17830752.590 -12845479.296 -13019720.660 10 0 57271 81000.00000 0 16668494.653 -11515309.208 -15552295.361 10 0 57271 81900.00000 0 15451522.236 -9855199.361 -17783925.786 10 0 57271 82800.00000 0 14240019.845 -7886872.953 -19671312.412 10 0 57271 83700.00000 0 13090420.890 -5644378.817 -21177766.361 10 0 57271 84600.00000 0 12053017.006 -3172942.821 -22273922.924 10 0 57271 85500.00000 0 11169839.253 -527354.194 -22938318.439 10 0 57272 0.00000 0 10472899.739 2230048.906 -23157819.140 10 0 57272 900.00000 0 9982867.934 5031713.881 -22927892.927 10 0 57272 1800.00000 0 9708237.162 7807433.081 -22252717.760 10 0 57272 2700.00000 0 9645019.027 10487024.223 -21145122.930 10 0 57272 3600.00000 0 9776978.405 13003021.663 -19626362.753 10 0 57272 4500.00000 0 10076402.062 15293266.915 -17725725.043 10 0 57272 5400.00000 0 10505369.551 17303290.683 -15479980.160 10 0 57272 6300.00000 0 11017474.242 18988386.355 -12932679.617 10 0 57272 7200.00000 0 11559922.618 20315287.138 -10133316.642 10 0 57272 8100.00000 0 12075923.242 21263375.370 -7136364.269 10 0 57272 9000.00000 0 12507263.726 21825371.995 -4000209.486 10 0 57272 9900.00000 0 12796965.317 22007476.167 -786004.826 10 0 57272 10800.00000 0 12891900.752 21828948.606 2443539.163 10 0 57272 11700.00000 0 12745262.139 21321156.322 5625395.372 10 0 57272 12600.00000 0 12318771.853 20526119.729 8697469.259 10 0 57272 13500.00000 0 11584540.396 19494624.891 11599829.215 10 0 57272 14400.00000 0 10526490.551 18283982.426 14275892.126 10 0 57272 15300.00000 0 9141286.029 16955529.852 16673539.200 10 0 57272 16200.00000 0 7438724.471 15571984.970 18746139.057 10 0 57272 17100.00000 0 5441577.812 14194763.772 20453457.411 10 0 57272 18000.00000 0 3184886.987 12881377.403 21762435.506 10 0 57272 18900.00000 0 714741.108 11683018.472 22647822.694 10 0 57272 19800.00000 0 -1913406.942 10642438.222 23092651.891 10 0 57272 20700.00000 0 -4636817.233 9792202.980 23088550.100 10 0 57272 21600.00000 0 -7387844.539 9153401.556 22635879.677 10 0 57272 22500.00000 0 -10096525.656 8734855.766 21743709.367 10 0 57272 23400.00000 0 -12693264.672 8532864.801 20429617.369 10 0 57272 24300.00000 0 -15111505.301 8531491.607 18719331.780 10 0 57272 25200.00000 0 -17290280.417 8703376.854 16646216.550 10 0 57272 26100.00000 0 -19176534.421 9011044.257 14250613.818 10 0 57272 27000.00000 0 -20727123.921 9408640.778 11579055.876 10 0 57272 27900.00000 0 -21910415.740 9844037.563 8683362.095 10 0 57272 28800.00000 0 -22707417.878 10261202.769 5619638.227 10 0 57272 29700.00000 0 -23112398.483 10602746.548 2447196.948 10 0 57272 30600.00000 0 -23132968.850 10812531.516 -772580.170 10 0 57272 31500.00000 0 -22789628.386 10838239.601 -3977417.996 10 0 57272 32400.00000 0 -22114791.559 10633788.040 -7105338.805 10 0 57272 33300.00000 0 -21151337.907 10161493.604 -10095846.899 10 0 57272 34200.00000 0 -19950745.670 9393894.483 -12891085.038 10 0 57272 35100.00000 0 -18570886.561 8315153.296 -15436941.475 10 0 57272 36000.00000 0 -17073572.983 6921981.792 -17684087.274 10 0 57272 36900.00000 0 -15521959.128 5224047.321 -19588924.742 10 0 57272 37800.00000 0 -13977903.387 3243842.311 -21114429.433 10 0 57272 38700.00000 0 -12499401.149 1016019.816 -22230869.937 10 0 57272 39600.00000 0 -11138194.403 -1413779.787 -22916391.628 10 0 57272 40500.00000 0 -9937657.465 -3990565.059 -23157452.852 10 0 57272 41400.00000 0 -8931047.090 -6652027.607 -22949104.442 10 0 57272 42300.00000 0 -8140190.537 -9330892.075 -22295105.998 10 0 57272 43200.00000 0 -7574667.261 -11957486.654 -21207875.254 10 0 57272 44100.00000 0 -7231519.647 -14462428.924 -19708269.710 10 0 57272 45000.00000 0 -7095506.274 -16779316.153 -17825202.915 10 0 57272 45900.00000 0 -7139888.382 -18847308.259 -15595100.942 10 0 57272 46800.00000 0 -7327717.585 -20613495.238 -13061207.937 10 0 57272 47700.00000 0 -7613571.337 -22034949.029 -10272752.961 10 0 57272 48600.00000 0 -7945663.057 -23080372.562 -7283993.549 10 0 57272 49500.00000 0 -8268237.266 -23731275.310 -4153154.380 10 0 57272 50400.00000 0 -8524147.260 -23982624.503 -941282.301 10 0 57272 51300.00000 0 -8657504.350 -23842943.584 2288958.899 10 0 57272 52200.00000 0 -8616284.196 -23333853.279 5474528.923 10 0 57272 53100.00000 0 -8354777.282 -22489074.767 8553260.303 10 0 57272 54000.00000 0 -7835777.172 -21352937.874 11465090.250 10 0 57272 54900.00000 0 -7032411.573 -19978458.675 14153248.923 10 0 57272 55800.00000 0 -5929536.876 -18425069.443 16565379.121 10 0 57272 56700.00000 0 -4524635.912 -16756098.741 18654564.281 10 0 57272 57600.00000 0 -2828180.316 -15036109.709 20380244.030 10 0 57272 58500.00000 0 -863442.144 -13328210.243 21708999.266 10 0 57272 59400.00000 0 1334237.016 -11691449.154 22615192.024 10 0 57272 60300.00000 0 3718688.162 -10178407.919 23081448.706 10 0 57272 61200.00000 0 6234615.341 -8833088.604 23098978.666 10 0 57272 62100.00000 0 8819682.737 -7689185.199 22667723.685 10 0 57272 63000.00000 0 11406900.822 -6768808.779 21796337.181 10 0 57272 63900.00000 0 13927211.939 -6081717.480 20501995.274 10 0 57272 64800.00000 0 16312168.077 -5625080.785 18810044.883 10 0 57272 65700.00000 0 18496590.234 -5383785.176 16753496.894 10 0 57272 66600.00000 0 20421099.932 -5331265.839 14372375.109 10 0 57272 67500.00000 0 22034419.252 -5430827.246 11712934.132 10 0 57272 68400.00000 0 23295345.526 -5637395.561 8826761.433 10 0 57272 69300.00000 0 24174320.392 -5899628.132 5769780.914 10 0 57272 70200.00000 0 24654529.796 -6162290.879 2601176.791 10 0 57272 71100.00000 0 24732490.798 -6368803.593 -617742.101 10 0 57272 72000.00000 0 24418102.078 -6463846.460 -3824716.327 10 0 57272 72900.00000 0 23734157.022 -6395918.763 -6957726.550 10 0 57272 73800.00000 0 22715340.198 -6119742.766 -9956178.955 10 0 57272 74700.00000 0 21406749.122 -5598412.257 -12762063.522 10 0 57272 75600.00000 0 19862002.547 -4805195.640 -15321063.933 10 0 57272 76500.00000 0 18141013.353 -3724917.600 -17583598.728 10 0 57272 77400.00000 0 16307517.873 -2354860.595 -19505774.470 10 0 57272 78300.00000 0 14426463.355 -705146.941 -21050233.296 10 0 57272 79200.00000 0 12561361.251 1201416.551 -22186878.946 10 0 57272 80100.00000 0 10771715.517 3330027.391 -22893467.359 10 0 57272 81000.00000 0 9110632.293 5635083.838 -23156050.188 10 0 57272 81900.00000 0 7622710.126 8061842.125 -22969261.994 10 0 57272 82800.00000 0 6342298.752 10548468.325 -22336444.448 10 0 57272 83700.00000 0 5292199.498 13028402.032 -21269603.712 10 0 57272 84600.00000 0 4482862.389 15432935.564 -19789200.039 10 0 57272 85500.00000 0 3912114.606 17693902.506 -17923771.841 10 0 57273 0.00000 0 3565432.764 19746364.167 -15709399.662 10 0 57273 900.00000 0 3416748.680 21531181.517 -13189018.434 10 0 57273 1800.00000 0 3429755.185 22997364.614 -10411590.954 10 0 57273 2700.00000 0 3559657.706 24104098.732 -7431156.694 10 0 57273 3600.00000 0 3755296.761 24822361.923 -4305775.114 10 0 57273 4500.00000 0 3961551.078 25136063.155 -1096384.193 10 0 57273 5400.00000 0 4121917.820 25042652.241 2134402.435 10 0 57273 6300.00000 0 4181158.552 24553174.662 5323534.755 10 0 57273 7200.00000 0 4087896.359 23691768.566 8408775.827 10 0 57273 8100.00000 0 3797051.474 22494625.421 11329935.012 10 0 57273 9000.00000 0 3272009.756 21008459.063 14030058.868 10 0 57273 9900.00000 0 2486430.150 19288549.167 16456554.633 10 0 57273 10800.00000 0 1425613.034 17396443.336 18562223.104 10 0 57273 11700.00000 0 87370.679 15397416.394 20306180.013 10 0 57273 12600.00000 0 -1517637.290 13357795.427 21654647.732 10 0 57273 13500.00000 0 -3366117.405 11342264.109 22581602.413 10 0 57273 14400.00000 0 -5422895.366 9411259.948 23069264.954 10 0 57273 15300.00000 0 -7642176.150 7618573.382 23108427.615 10 0 57273 16200.00000 0 -9969257.661 6009248.193 22698611.674 10 0 57273 17100.00000 0 -12342625.665 4617869.325 21848054.783 10 0 57273 18000.00000 0 -14696342.091 3467307.399 20573530.011 10 0 57273 18900.00000 0 -16962627.139 2567969.609 18900001.614 10 0 57273 19800.00000 0 -19074528.075 1917585.357 16860125.425 10 0 57273 20700.00000 0 -20968564.332 1501532.708 14493604.484 10 0 57273 21600.00000 0 -22587240.077 1293689.309 11846412.927 10 0 57273 22500.00000 0 -23881321.080 1257769.859 8969903.285 10 0 57273 23400.00000 0 -24811782.697 1349092.399 5919814.414 10 0 57273 24300.00000 0 -25351349.456 1516698.140 2755198.803 10 0 57273 25200.00000 0 -25485563.623 1705735.269 -462710.685 10 0 57273 26100.00000 0 -25213339.417 1860006.554 -3671673.475 10 0 57273 27000.00000 0 -24546980.712 1924573.923 -6809631.662 10 0 57273 27900.00000 0 -23511661.911 1848311.072 -9815896.204 10 0 57273 28800.00000 0 -22144393.682 1586297.320 -12632307.014 10 0 57273 29700.00000 0 -20492516.199 1101952.503 -15204345.680 10 0 57273 30600.00000 0 -18611781.821 368823.221 -17482180.412 10 0 57273 31500.00000 0 -16564105.921 -628054.903 -19421623.857 10 0 57273 32400.00000 0 -14415078.116 -1891277.149 -20984986.125 10 0 57273 33300.00000 0 -12231336.009 -3410710.304 -22141807.024 10 0 57273 34200.00000 0 -10077909.377 -5163671.149 -22869453.460 10 0 57273 35100.00000 0 -8015644.113 -7115638.032 -23153570.293 10 0 57273 36000.00000 0 -6098812.287 -9221468.801 -22988375.235 10 0 57273 36900.00000 0 -4373007.425 -11427077.190 -22376791.029 10 0 57273 37800.00000 0 -2873412.715 -13671500.559 -21330410.896 10 0 57273 38700.00000 0 -1623514.785 -15889275.183 -19869296.179 10 0 57273 39600.00000 0 -634317.568 -18013021.627 -18021608.250 10 0 57273 40500.00000 0 95909.941 -19976133.324 -15823079.931 10 0 57273 41400.00000 0 581340.550 -21715456.150 -13316334.966 10 0 57273 42300.00000 0 847761.893 -23173846.208 -10550067.513 10 0 57273 43200.00000 0 931250.075 -24302497.394 -7578096.724 10 0 57273 44100.00000 0 876400.025 -25062939.330 -4458314.587 10 0 57273 45000.00000 0 734188.053 -25428619.728 -1251548.007 10 0 57273 45900.00000 0 559558.400 -25386002.768 1979641.690 10 0 57273 46800.00000 0 408837.933 -24935135.656 5172196.871 10 0 57273 47700.00000 0 337090.840 -24089658.478 8263813.182 10 0 57273 48600.00000 0 395528.000 -22876256.601 11194174.133 10 0 57273 49500.00000 0 629083.339 -21333579.027 13906144.611 10 0 57273 50400.00000 0 1074262.084 -19510669.276 16346898.126 10 0 57273 51300.00000 0 1757353.789 -17464976.316 18468954.529 10 0 57273 52200.00000 0 2693086.930 -15260030.827 20231107.158 10 0 57273 53100.00000 0 3883782.458 -12962886.144 21599221.146 10 0 57273 54000.00000 0 5319042.029 -10641432.552 22546887.787 10 0 57273 54900.00000 0 6975983.592 -8361698.294 23055923.227 10 0 57273 55800.00000 0 8820013.613 -6185250.411 23116703.135 10 0 57273 56700.00000 0 10806102.660 -4166803.445 22728328.534 10 0 57273 57600.00000 0 12880510.050 -2352134.417 21898621.330 10 0 57273 58500.00000 0 14982884.731 -776389.121 20643951.356 10 0 57273 59400.00000 0 17048654.289 537152.251 18988899.819 10 0 57273 60300.00000 0 19011602.454 1577801.596 16965766.915 10 0 57273 61200.00000 0 20806527.966 2347654.195 14613934.119 10 0 57273 62100.00000 0 22371874.826 2861239.788 11979094.041 10 0 57273 63000.00000 0 23652225.405 3144650.698 9112362.923 10 0 57273 63900.00000 0 24600553.762 3234185.623 6069292.924 10 0 57273 64800.00000 0 25180146.652 3174567.604 2908802.828 10 0 57273 65700.00000 0 25366113.425 3016811.904 -307952.763 10 0 57273 66600.00000 0 25146422.974 2815833.758 -3518754.672 10 0 57273 67500.00000 0 24522425.305 2627896.471 -6661509.151 10 0 57273 68400.00000 0 23508836.385 2508006.728 -9675434.746 10 0 57273 69300.00000 0 22133186.883 2507366.045 -12502224.111 10 0 57273 70200.00000 0 20434757.273 2670984.940 -15087159.479 10 0 57273 71100.00000 0 18463042.704 3035559.765 -17380161.316 10 0 57273 72000.00000 0 16275810.292 3627701.359 -19336750.789 10 0 57273 72900.00000 0 13936828.077 4462590.435 -20918908.237 10 0 57273 73800.00000 0 11513358.370 5543117.222 -22095811.592 10 0 57273 74700.00000 0 9073518.086 6859543.104 -22844440.583 10 0 57273 75600.00000 0 6683614.197 8389700.710 -23150034.878 10 0 57273 76500.00000 0 4405563.843 10099726.763 -23006396.656 10 0 57273 77400.00000 0 2294505.592 11945299.873 -22416030.682 10 0 57273 78300.00000 0 396700.842 13873334.442 -21390117.783 10 0 57273 79200.00000 0 -1252187.144 15824062.449 -19948320.487 10 0 57273 80100.00000 0 -2628364.286 17733418.133 -18118422.741 10 0 57273 81000.00000 0 -3720672.958 19535627.215 -15935808.823 10 0 57273 81900.00000 0 -4530822.563 21165892.854 -13442789.825 10 0 57273 82800.00000 0 -5073072.874 22563065.460 -10687789.501 10 0 57273 83700.00000 0 -5373383.007 23672183.328 -7724404.433 10 0 57273 84600.00000 0 -5468061.796 24446775.740 -4610356.520 10 0 57273 85500.00000 0 -5401976.991 24850829.602 -1406358.654 99